Volver al catálogo

STARLINK-3366

ActivoComunicacionesVLEO
NORAD 51104·PAYLOAD·🇺🇸 United States

Lanzado Jan 19, 2022 desde Cape Canaveral Space Force Station

Loading…

Próximos Pases (próximas 24 horas)

TLE

ActualizadoSource: CelesTrak SupGP

Época: Sep 15, 2026, 02:35 UTC

1 51104C 22005A   26258.10812500  .00060767  00000+0  26652-2 0  2586
2 51104  53.1976 155.8771 0001629  87.9518 131.5575 15.21422720    18

Sigue STARLINK-3366 en tiempo real con AllMySat

Download on the App Store